Meteo Giornale » Osservazioni meteo Svezia » Stockholm-Arlanda

ore: 13:50 - Osservazioni Meteo Stockholm-Arlanda
Lat. 59° 39' N Lon. 17° 57' E Alt. 38 metri s.l.m.

sereno Europe/Stockholm

9 °C

Sereno

Temp. 24 Ore

-1 °C

10 °C

Est/Nord-Est

29.6 Km/h

Dew point -2 °C

Umidità 45 %

Visibilità  10 Km

Il sole sorge alle ore 04:51

Il sole tramonta alle ore 20:39

Data e Ora Cielo e Fenomeni T °C DP °C Um. % Pres. hPa Vis. km Vento km/h
Oggi h: 13:50 sereno Sereno 9 -2 45 1019 10 E/NE 29.6
Oggi h: 13:20 sereno Sereno 10 -1 46 1019 10 E/NE 27.8
Oggi h: 12:50 nuvoloso Nuvoloso 9 -1 49 1019 10 E/NE 25.9
Oggi h: 12:20 nuvoloso Nuvoloso 9 -0 53 1019 10 E 20.3
Oggi h: 11:50 poco_nuvoloso Poco Nuvoloso 8 -1 52 1019 10 E/NE 20.3
Oggi h: 11:20 nuvoloso Nuvoloso 8 -1 52 1019 10 E/NE 20.3
Oggi h: 10:50 sereno Sereno 8 -0 56 1019 10 E/NE 20.3
Oggi h: 10:20 sereno Sereno 7 0 60 1019 10 E/NE 16.7
Oggi h: 09:50 sereno Sereno 6 1 70 1018 10 E/NE 16.7
Oggi h: 09:20 sereno Sereno 6 2 75 1018 10 NE 14.8
Oggi h: 08:50 sereno Sereno 5 2 80 1018 10 E/NE 13
Oggi h: 08:20 sereno Sereno 4 2 86 1018 10 E/NE 16.7
Oggi h: 07:50 sereno Sereno 4 2 86 1017 10 E/NE 16.7
Oggi h: 07:20 sereno Sereno 3 1 86 1017 10 E/NE 16.7
Oggi h: 06:50 sereno Sereno 2 1 93 1017 10 E/NE 14.8
Oggi h: 06:20 sereno Sereno 1 0 93 1016 10 E/NE 13
Oggi h: 05:50 sereno Sereno 0 -0 100 1016 10 E/NE 16.7
Oggi h: 05:20 sereno Sereno 0 -1 92 1016 10 E/NE 13
Oggi h: 04:50 sereno Sereno 0 -1 92 1015 10 E/NE 11.1
Oggi h: 04:20 sereno Sereno -0 -1 92 1015 10 E/NE 11.1
Oggi h: 03:50 sereno Sereno -1 -2 92 1015 10 E 9.3
Oggi h: 03:20 sereno Sereno -1 -1 100 1014 10 E/NE 9.3
Oggi h: 02:50 sereno Sereno -1 -2 92 1014 10 E 9.3
Oggi h: 02:20 sereno Sereno -1 -1 100 1014 10 E 9.3
Oggi h: 01:50 sereno Sereno -0 -1 92 1014 10 E/NE 9.3
Oggi h: 01:20 sereno Sereno -0 -1 92 1014 10 N 5.5
Oggi h: 00:50 sereno Sereno 0 -0 100 1013 10 N 5.5
Oggi h: 00:20 sereno Sereno 2 0 86 1013 10 E 7.4
Ieri h: 23:50 sereno Sereno 3 1 86 1013 10 E 7.4
Ieri h: 23:20 molto_nuvoloso Molto Nuvoloso 3 1 86 1013 10 E/NE 11.1
Ieri h: 22:50 coperto_pioggia Pioggia Debole 3 1 86 1013 10 N 11.1
Ieri h: 22:20 molto_nuvoloso Molto Nuvoloso 3 -0 80 1013 10 E 7.4
Ieri h: 21:50 molto_nuvoloso Molto Nuvoloso 4 0 75 1012 10 E 9.3
Ieri h: 21:20 sereno Sereno 4 -0 75 1012 10 E/NE 11.1
Ieri h: 20:50 sereno Sereno 4 -1 69 1011 10 E/NE 9.3
Ieri h: 20:20 sereno Sereno 6 -1 60 1011 10 N 5.5
Ieri h: 19:50 sereno Sereno 6 -0 65 1011 10 SE 11.1
Ieri h: 19:20 sereno Sereno 7 -0 60 1010 10 SE 11.1
Ieri h: 18:50 sereno Sereno 7 -0 60 1010 10 E/SE 13
Ieri h: 18:20 sereno Sereno 8 -2 49 1010 10 S 11.1
Ieri h: 17:50 poco_nuvoloso Poco Nuvoloso 8 -2 49 1010 10 SO 16.7
Ieri h: 17:20 nuvoloso Rovescio nelle Vicinanze 7 -2 52 1010 10 S/SO 16.7
Ieri h: 16:50 nuvoloso_piovaschi Debole Rovescio di Pioggia 8 -4 42 1009 10 NE 7.4
Ieri h: 16:20 molto_nuvoloso Molto Nuvoloso 7 -3 48 1009 10 N 20.3
Ieri h: 15:50 molto_nuvoloso Molto Nuvoloso 9 -5 36 1009 10 SO 18.5
Ieri h: 15:20 molto_nuvoloso Molto Nuvoloso 9 -6 33 1009 10 SO 16.7
Ieri h: 14:50 nuvoloso Nuvoloso 9 -6 33 1008 10 O 9.3